^^
Saratoga-Weather Station Historical Data
Daily Summary for September 16, 2021 Units:  English    Metric   Both
Daily Weekly Monthly Yearly Custom
  High: Low: Average:
Temperature: 51.8 °F 48.6 °F 50 °F
Dew Point: 48.7 °F 46.6 °F 47.7 °F
Humidity: 94% 89% 91%
Wind Speed: 2mph 0mph 0.4mph
Wind Gust: 3mph - -
Wind- - South
Pressure: 30.1 in 30.1 in -
Precipitation: 0 in    
Historical Graphs
 
 
Tabular Data for September 16, 2021
Time Temperature Dew Point Pressure Wind Wind Speed Wind Gust Humidity Rainfall Rate (Hourly) solar
00:02 51.8 °F 48.7 °F 30.1 in Calm   3 mph 89% 0 in 0 W/m2
00:07 51.4 °F 48.4 °F 30.1 in Calm   1 mph 89% 0 in 0 W/m2
00:12 51.4 °F 48.6 °F 30.1 in Calm   3 mph 90% 0 in 0 W/m2
00:17 51.3 °F 48.4 °F 30.1 in ESE 0.9 mph 2 mph 90% 0 in 0 W/m2
00:22 51.3 °F 48.4 °F 30.1 in Calm     90% 0 in 0 W/m2
00:27 51.3 °F 48.4 °F 30.1 in Calm   1 mph 90% 0 in 0 W/m2
00:32 51.1 °F 48.2 °F 30.1 in Calm   1 mph 90% 0 in 0 W/m2
00:37 50.9 °F 48 °F 30.1 in Calm   2 mph 90% 0 in 0 W/m2
00:42 50.7 °F 48.2 °F 30.1 in Calm   1 mph 91% 0 in 0 W/m2
00:47 50.7 °F 48.2 °F 30.1 in Calm   2 mph 91% 0 in 0 W/m2
00:52 50.5 °F 48 °F 30.1 in NNW 0.9 mph 2 mph 91% 0 in 0 W/m2
00:57 50.5 °F 48 °F 30.1 in Calm   2 mph 91% 0 in 0 W/m2
01:02 50.5 °F 48 °F 30.1 in NE 0.9 mph 1 mph 91% 0 in 0 W/m2
01:07 50.4 °F 47.8 °F 30.1 in NE 0.9 mph 2 mph 91% 0 in 0 W/m2
01:12 50 °F 47.5 °F 30.1 in Calm   1 mph 91% 0 in 0 W/m2
01:17 49.8 °F 47.7 °F 30.1 in East 2 mph 3 mph 92% 0 in 0 W/m2
01:22 49.8 °F 47.7 °F 30.1 in Calm   1 mph 92% 0 in 0 W/m2
01:27 49.6 °F 47.5 °F 30.1 in Calm   2 mph 92% 0 in 0 W/m2
01:32 49.6 °F 47.5 °F 30.1 in Calm   2 mph 92% 0 in 0 W/m2
01:37 49.6 °F 47.5 °F 30.1 in Calm   2 mph 92% 0 in 0 W/m2
01:42 49.5 °F 47.3 °F 30.1 in SSW 0.9 mph 1 mph 92% 0 in 0 W/m2
01:47 49.5 °F 47.3 °F 30.1 in Calm   1 mph 92% 0 in 0 W/m2
01:52 49.1 °F 46.9 °F 30.1 in Calm     92% 0 in 0 W/m2
01:57 48.7 °F 46.6 °F 30.1 in Calm     92% 0 in 0 W/m2
02:02 48.6 °F 46.6 °F 30.1 in NW 2 mph 2 mph 93% 0 in 0 W/m2
02:07 48.6 °F 46.6 °F 30.1 in WNW 0.9 mph 1 mph 93% 0 in 0 W/m2
02:12 48.6 °F 46.6 °F 30.1 in NW 0.9 mph 3 mph 93% 0 in 0 W/m2
02:17 48.6 °F 46.6 °F 30.1 in NE 0.9 mph 2 mph 93% 0 in 0 W/m2
02:22 48.6 °F 46.9 °F 30.1 in West 2 mph 2 mph 94% 0 in 0 W/m2
02:27 48.6 °F 46.9 °F 30.1 in Calm     94% 0 in 0 W/m2
Juneau County Weather
Compliments of Weather Underground - 2 mb